Weather History for North Platte, NE

Change the Weather History Date:

Thursday, January 23, 2014

  Actual Average Record
Temperature  
Mean Temperature 8 °F 25 °F  
Max Temperature 23 °F 39 °F 70 °F (1981)
Min Temperature -8 °F 11 °F -23 °F (1963)
Degree Days  
Heating Degree Days 57 40  
Month to date heating degree days 885 925  
Since 1 July heating degree days 3637 3705  
Cooling Degree Days 0 0  
Month to date cooling degree days 0 0  
Year to date cooling degree days 0 0  
Moisture  
Dew Point -6 °F    
Average Humidity 51    
Maximum Humidity 78    
Minimum Humidity 23    
Precipitation  
Precipitation 0.00 in 0.01 in 0.24 in (1903)
Month to date precipitation 0.07 0.25  
Year to date precipitation 0.07 0.25  
Snow  
Snow 0.00 in 0.20 in 4.50 in (2000)
Month to date snowfall 0.8 3.6  
Since 1 July snowfall 7.5 14.4  
Snow Depth 0.00 in    
Sea Level Pressure  
Sea Level Pressure 30.73 in    
Wind  
Wind Speed 7 mph (West)    
Max Wind Speed 17 mph    
Max Gust Speed 23 mph    
Visibility 10 miles    
Events      
T = Trace of Precipitation, MM = Missing Value Source: NWS Daily Summary

Daily Weather History Graph

Daily Weather History Graph

Search for Another Location

Airport:

Trip Planner

Search our weather history database for the weather conditions in past years. The results will help you decide how hot, cold, wet, or windy it might be!

Date:

Astronomy

Jan. 23, 2014 Rise Set
Actual Time 8:01 AM CST 5:48 PM CST
Civil Twilight 7:31 AM CST 6:18 PM CST
Nautical Twilight 6:57 AM CST 6:51 PM CST
Astronomical Twilight 6:25 AM CST 7:24 PM CST
Moon 12:25 AM CST (1/23) 11:33 AM CST (1/23)
Length of Visible Light 10h 46m
Length of Day
9h 47m
Waning Gibbous, 55% of the Moon is Illuminated
Jan 23
Waning Gibbous
Jan 23
Last Quarter
Jan 30
New
Feb 6
First Quarter
Feb 14
Full

Hourly Weather History & Observations

Time (CST) Temp. Windchill Dew Point Humidity Pressure Visibility Wind Dir Wind Speed Gust Speed Precip Events Conditions
12:53 AM 3.0 °F -10.5 °F -9.9 °F 55% 30.66 in 10.0 mi NNE 8.1 mph - N/A   Clear
1:53 AM 1.9 °F -10.6 °F -9.9 °F 58% 30.69 in 10.0 mi North 6.9 mph - N/A   Clear
2:53 AM 1.9 °F -7.6 °F -9.0 °F 60% 30.73 in 10.0 mi NNW 4.6 mph - N/A   Clear
3:53 AM -2.0 °F -10.1 °F -9.0 °F 72% 30.76 in 10.0 mi WNW 3.5 mph - N/A   Clear
4:53 AM -4.0 °F -14.6 °F -9.9 °F 76% 30.79 in 10.0 mi NNW 4.6 mph - N/A   Clear
5:53 AM -6.0 °F - -11.9 °F 75% 30.83 in 10.0 mi Calm Calm - N/A   Clear
6:53 AM -7.1 °F - -13.0 °F 75% 30.87 in 10.0 mi Calm Calm - N/A   Clear
7:53 AM -6.0 °F - -11.9 °F 75% 30.87 in 10.0 mi Calm Calm - N/A   Clear
8:53 AM -2.0 °F -10.1 °F -9.0 °F 72% 30.89 in 10.0 mi NW 3.5 mph - N/A   Clear
9:53 AM 3.0 °F -8.0 °F -6.0 °F 66% 30.91 in 10.0 mi West 5.8 mph - N/A   Clear
10:53 AM 8.1 °F -0.5 °F -9.0 °F 46% 30.89 in 10.0 mi West 4.6 mph - N/A   Clear
11:53 AM 12.0 °F 0.5 °F -9.9 °F 37% 30.87 in 10.0 mi West 8.1 mph - N/A   Clear
12:53 PM 17.1 °F 5.8 °F -9.9 °F 30% 30.82 in 10.0 mi West 9.2 mph - N/A   Clear
1:53 PM 19.0 °F 8.2 °F -13.0 °F 24% 30.77 in 10.0 mi WSW 9.2 mph - N/A   Clear
2:53 PM 21.9 °F 10.4 °F -11.0 °F 23% 30.74 in 10.0 mi West 11.5 mph 20.7 mph N/A   Clear
3:53 PM 23.0 °F 10.6 °F -5.1 °F 29% 30.71 in 10.0 mi SW 13.8 mph - N/A   Clear
4:53 PM 21.9 °F 9.2 °F -2.9 °F 34% 30.69 in 10.0 mi SW 13.8 mph 21.9 mph N/A   Clear
5:53 PM 19.0 °F 8.2 °F -2.0 °F 40% 30.68 in 10.0 mi SSW 9.2 mph - N/A   Clear
6:53 PM 17.1 °F 6.6 °F 1.0 °F 50% 30.66 in 10.0 mi SSW 8.1 mph - N/A   Clear
7:53 PM 15.1 °F 1.1 °F 1.9 °F 56% 30.64 in 10.0 mi SW 12.7 mph - N/A   Clear
8:53 PM 14.0 °F 2.0 °F 3.9 °F 64% 30.61 in 10.0 mi SSW 9.2 mph - N/A   Clear
9:53 PM 12.0 °F 1.5 °F 3.9 °F 70% 30.57 in 10.0 mi SSW 6.9 mph - N/A   Clear
10:53 PM 14.0 °F 5.1 °F 6.1 °F 71% 30.52 in 10.0 mi SW 5.8 mph - N/A   Clear
11:53 PM 12.9 °F 0.7 °F 5.0 °F 71% 30.47 in 10.0 mi WSW 9.2 mph - N/A   Clear